Theta_e
290 284 281 284 286 287 287 284 284 287 291 290 289 289 290 294 291 289 290 290 291 291 293 293 293 293 293 293 296 299 298 297 297 293 292 291 291 291 291 292 293 292 293 293
286 281 287 288 288 286 286 283 283 288 291 289 288 288 289 291 292 292 291 290 290 290 290 292 292 292 292 292 293 295 297 297 296 294 291 292 291 291 291 292 291 292 292 292
283 285 289 287 286 285 285 283 283 283 287 289 287 285 286 289 291 292 292 294 293 291 291 291 291 291 290 291 291 293 296 296 295 294 293 291 290 288 288 288 289 290 291 291
285 289 286 285 284 285 281 287 286 284 281 278 287 278 286 288 289 292 294 292 292 292 293 292 291 290 290 291 291 293 295 295 294 294 292 289 287 286 286 288 288 289 289 289
283 285 284 284 285 287 283 288 286 284 283 282 282 280 283 288 288 291 293 294 294 295 293 291 291 291 291 291 291 292 294 294 293 291 291 288 286 287 287 287 287 287 287 288
285 291 288 288 289 288 289 285 285 284 283 276 280 281 280 284 287 290 293 294 296 294 293 292 292 292 290 289 289 290 292 291 291 290 288 287 287 286 285 285 284 284 285 285
280 283 288 291 284 287 285 283 275 274 274 273 281 280 282 285 290 292 292 293 295 296 293 291 289 290 290 289 288 289 290 288 288 288 287 287 287 286 285 285 284 284 283 282
274 270 281 288 284 283 284 283 276 270 266 273 279 276 281 289 291 292 292 288 290 291 291 289 289 289 289 289 288 288 288 286 286 286 286 286 286 285 285 284 284 283 281 282
276 275 284 285 288 287 282 280 283 274 266 273 274 279 284 287 284 284 282 287 288 287 287 287 288 288 288 287 287 286 285 285 285 285 284 284 284 284 283 283 283 282 283 282
282 275 282 282 286 286 281 284 277 279 270 270 274 273 276 282 280 283 281 283 285 286 286 286 286 286 287 286 285 285 285 285 284 284 284 284 283 282 281 279 280 279 279 281
283 280 275 284 281 280 281 281 281 279 279 272 271 274 278 281 275 278 278 283 283 284 284 285 285 284 282 282 282 281 281 280 281 282 281 282 281 281 278 277 275 273 271 272
284 277 272 278 281 282 282 282 280 276 269 271 270 276 276 270 269 276 279 282 282 282 282 281 280 280 280 279 278 278 277 278 279 279 280 279 280 278 274 272 270 271 271 270
281 279 273 271 276 281 279 280 281 279 277 275 270 273 271 279 280 281 277 279 281 281 280 278 277 277 277 277 277 276 275 276 277 277 277 277 275 276 272 270 270 273 274 273
286 279 273 269 273 277 274 276 282 281 278 278 279 280 271 274 272 274 279 281 281 280 279 276 275 274 276 277 276 275 274 275 275 275 275 275 274 274 272 273 273 275 274 273
283 276 272 275 274 274 274 277 280 279 280 278 278 277 275 276 271 273 272 278 280 279 278 278 278 276 274 275 276 276 275 275 274 273 273 273 272 270 269 269 268 269 271 273
283 273 272 271 272 269 269 272 277 278 280 281 281 281 281 277 273 276 274 272 278 278 275 274 276 276 274 273 272 274 274 274 273 272 272 271 271 269 269 268 267 268 268 268
278 274 272 268 270 274 266 269 272 275 281 280 277 277 279 279 279 280 279 276 276 276 277 277 277 277 276 274 276 273 272 273 273 272 273 273 274 273 272 272 272 271 268 268
275 274 278 272 269 263 270 268 272 275 275 275 276 277 278 283 282 282 276 277 278 277 275 276 277 276 275 275 275 276 276 275 274 273 274 275 274 273 273 273 272 271 273 276
281 278 274 270 269 272 273 270 270 272 272 271 272 273 275 280 281 280 281 282 282 281 279 276 274 273 273 273 275 276 275 275 274 274 273 273 273 273 273 273 272 272 273 273
280 279 276 271 266 264 270 272 275 275 268 271 269 271 271 277 276 276 277 277 277 277 277 275 274 273 273 273 276 275 274 274 273 273 273 273 273 273 272 273 273 274 274 275
271 275 273 272 271 269 272 276 277 271 270 269 269 269 272 274 273 273 275 274 274 274 274 274 274 273 273 273 275 274 273 272 273 273 273 273 272 272 272 273 273 272 272 273
271 270 268 271 269 266 277 276 273 274 274 271 271 268 272 272 275 272 272 273 274 273 273 274 273 272 273 274 275 273 272 272 271 271 270 270 270 271 272 270 271 269 269 272
271 273 271 273 273 278 277 276 276 273 272 273 275 273 274 274 274 274 273 273 274 274 274 275 273 272 272 272 273 272 270 270 268 267 267 267 268 271 271 268 268 268 270 273
275 277 275 276 277 277 277 277 276 276 277 277 277 277 276 276 275 273 274 273 274 273 273 273 272 270 270 270 271 270 270 268 266 266 267 268 268 268 268 271 271 268 266 269
274 274 273 276 276 277 277 276 275 276 275 276 277 275 276 276 274 273 273 273 273 272 272 271 271 270 269 269 268 267 267 265 266 265 266 267 268 266 267 269 268 269 270 269
275 272 270 270 273 273 275 275 275 275 274 275 275 275 275 275 275 274 273 272 272 271 270 269 269 269 268 267 267 266 265 264 263 266 267 267 267 265 266 266 265 272 274 276
Wind_Speed
16 11 16 25 24 18 15 15 19 11 13 15 19 24 18 17 8 7 8 9 11 12 10 10 10 9 9 8 9 12 13 11 10 6 6 4 5 4 3 4 6 6 5 5
11 19 25 21 16 17 15 17 21 13 9 6 13 19 8 17 17 13 10 10 10 7 9 11 11 11 11 9 9 8 12 13 9 7 4 4 4 2 4 4 5 6 5 5
26 17 24 20 18 20 21 21 21 15 1 4 4 18 11 7 7 7 11 13 12 13 16 14 14 14 10 11 10 10 12 14 11 10 6 4 4 3 3 3 3 4 6 6
20 26 18 20 22 21 21 21 19 17 4 14 12 17 17 8 15 18 20 11 14 16 15 17 18 15 15 12 8 8 13 14 12 13 8 7 6 5 4 4 4 5 7 6
3 14 23 18 23 22 18 16 12 12 13 10 10 7 15 9 22 27 20 20 19 19 17 19 19 19 14 11 10 8 12 13 12 10 11 8 6 4 3 3 6 5 5 6
24 5 6 26 16 15 10 4 2 3 12 18 20 15 26 13 24 17 19 20 23 20 18 18 15 14 13 10 9 9 13 11 11 11 9 9 8 7 6 5 5 4 3 4
28 29 6 4 6 2 7 8 8 9 11 13 16 15 25 7 20 21 18 16 18 18 17 16 19 16 15 13 10 9 12 9 9 10 8 8 8 7 8 7 5 5 4 3
15 11 23 18 13 3 19 22 10 12 6 10 5 10 15 19 21 26 20 7 6 10 15 17 18 16 16 15 13 11 11 9 8 8 8 7 7 4 4 5 4 4 4 4
8 11 1 10 12 21 7 12 9 4 2 4 4 6 10 12 9 10 6 8 12 10 12 16 17 16 15 14 12 12 9 8 7 7 6 6 6 6 5 5 5 4 4 4
3 6 8 2 5 5 12 8 5 6 14 20 7 4 7 12 10 9 8 8 7 8 14 14 13 15 11 11 8 9 8 8 6 7 6 6 6 5 5 4 5 5 4 5
2 5 3 11 9 14 6 8 5 3 8 13 7 5 9 14 2 8 6 5 7 9 11 12 11 11 11 11 10 9 8 8 7 6 5 5 5 5 5 5 4 4 4 4
4 3 4 3 0 1 2 13 7 7 7 5 4 11 6 7 5 6 6 7 6 7 9 10 11 12 11 11 10 9 6 7 5 5 5 5 5 5 5 4 4 4 4 3
5 3 2 4 4 3 3 7 8 4 1 13 6 7 3 4 3 5 5 6 8 9 11 9 8 9 8 7 8 8 6 6 5 4 5 4 4 5 4 4 4 4 4 4
6 4 2 4 2 4 2 4 10 9 11 14 17 20 5 6 4 5 5 8 12 9 8 6 6 6 7 5 5 7 7 6 5 5 4 4 4 4 4 4 5 5 5 5
2 4 2 4 3 3 4 4 6 11 14 7 2 4 4 5 5 4 1 8 10 12 9 6 7 7 6 7 2 5 6 5 5 5 4 3 2 1 2 3 3 3 4 5
3 4 2 3 1 2 3 4 6 6 9 9 12 20 2 4 4 5 4 4 9 10 9 8 7 7 7 5 4 4 5 5 4 5 5 4 3 3 2 2 2 2 4 4
5 3 1 5 3 2 6 4 3 3 5 4 3 3 3 3 4 6 8 9 9 8 10 11 11 10 9 8 7 6 5 5 5 4 4 4 4 3 3 4 4 4 5 3
3 4 4 2 3 1 5 3 3 4 5 8 6 9 8 2 1 2 2 8 9 9 8 9 9 9 8 5 6 7 6 6 5 5 4 3 3 4 3 3 3 3 3 4
4 2 3 2 3 1 3 6 4 5 5 4 7 8 5 5 3 1 5 1 4 8 9 7 7 6 7 6 5 7 5 5 5 4 4 3 3 3 2 2 2 2 2 2
5 7 3 1 1 1 3 6 3 1 2 3 2 6 7 8 2 2 8 5 8 9 8 9 9 8 8 4 5 7 6 6 5 5 4 3 3 3 1 1 2 1 1 3
4 2 2 3 2 3 3 10 3 2 4 4 3 4 6 4 1 4 5 7 6 7 9 10 8 7 5 4 4 6 5 4 3 3 4 3 3 2 1 1 1 1 2 2
4 4 3 3 4 3 9 5 5 3 5 3 4 3 3 2 3 3 4 5 5 9 9 8 7 7 4 4 4 6 5 4 3 2 3 3 2 1 1 2 1 2 1 1
4 4 2 5 3 4 4 3 4 2 3 4 4 1 3 1 1 2 3 3 6 5 6 5 6 7 4 3 3 5 4 4 3 3 2 1 1 1 1 1 1 1 1 2
3 4 2 2 6 4 5 0 4 3 4 5 4 4 2 2 3 3 4 4 4 4 5 4 7 6 5 3 3 4 4 3 3 3 2 1 2 2 1 1 1 2 1 1
3 6 6 3 3 3 3 8 9 8 5 7 5 2 4 1 3 4 3 4 4 4 4 4 4 4 5 4 4 3 4 4 3 2 2 2 2 1 2 2 2 3 3 4
4 3 3 2 3 3 5 5 11 11 11 10 8 7 5 4 2 4 4 3 4 4 4 4 4 5 4 4 3 3 3 3 3 2 2 2 2 1 1 1 2 5 7 8
Wind_Direction
190 195 202 217 219 228 226 213 236 237 227 246 241 249 224 237 266 225 237 223 212 200 195 165 161 153 146 154 151 160 159 166 151 151 149 148 161 151 150 158 150 156 152 152
180 212 216 216 219 227 224 231 243 258 242 271 282 271 237 223 241 239 227 226 219 193 167 181 171 165 168 166 172 157 165 165 163 154 134 136 137 154 150 149 150 151 151 148
207 204 219 216 212 219 225 225 234 235 185 201 28 284 265 254 247 231 232 226 216 196 185 187 182 180 165 180 181 173 171 167 159 149 134 95 92 71 103 161 156 170 160 161
209 215 198 209 214 209 226 222 230 233 197 247 164 267 257 227 238 239 242 222 223 211 196 187 182 181 184 189 179 176 165 163 157 154 155 153 163 160 186 166 160 169 163 160
251 214 215 209 209 201 227 236 225 215 208 242 219 247 255 182 240 239 233 233 222 219 196 188 191 183 176 165 177 163 158 157 155 155 157 156 149 158 155 143 155 152 162 165
258 226 255 222 217 200 217 115 111 201 221 239 233 215 267 217 233 244 230 222 226 209 198 190 182 163 159 150 148 150 154 152 148 150 150 157 163 156 141 142 146 164 172 173
243 241 211 196 218 159 175 192 222 214 208 238 222 201 241 208 239 235 234 226 225 210 194 171 162 160 153 151 140 142 148 148 147 143 143 156 168 162 164 160 162 166 158 178
221 266 193 189 213 165 199 201 216 230 188 238 166 214 240 239 252 255 246 224 249 183 174 167 158 150 148 146 146 146 151 144 144 141 148 146 148 145 160 160 158 166 173 167
222 230 138 168 198 189 189 214 224 266 165 278 197 280 297 253 230 256 247 206 202 171 160 154 144 143 145 148 148 142 140 137 147 147 143 149 152 154 169 166 152 151 141 131
261 237 202 89 94 201 193 167 195 205 243 254 228 239 229 266 235 244 229 200 161 146 141 144 136 138 138 135 127 124 137 144 145 146 150 155 164 156 140 130 137 133 132 140
329 288 297 129 199 181 165 205 211 169 209 234 250 243 219 254 267 236 231 196 153 136 136 138 128 119 116 110 116 113 120 122 121 122 122 135 145 153 142 142 148 151 146 148
275 220 284 137 130 123 153 215 193 205 233 227 182 250 180 211 256 276 227 162 125 111 115 119 121 117 119 121 121 121 121 121 127 125 121 128 130 138 146 150 170 159 176 175
327 288 326 352 22 36 219 204 220 214 34 226 178 257 338 298 303 286 159 117 113 112 113 111 117 119 122 126 128 128 128 127 128 128 135 136 146 158 172 171 179 180 182 188
274 294 175 203 168 164 250 253 212 211 230 248 231 246 326 324 303 315 102 123 125 125 125 118 108 102 110 110 136 131 127 133 133 128 137 157 175 182 180 188 189 184 189 190
246 271 237 265 218 159 216 216 224 228 240 250 272 227 274 272 237 217 198 117 132 136 137 139 139 126 110 116 142 125 121 130 133 136 139 153 177 170 141 144 163 169 181 202
312 275 353 275 286 176 284 257 251 253 256 250 251 274 153 326 267 121 148 136 162 165 143 133 129 131 133 139 160 143 134 138 135 133 139 148 145 148 173 181 195 193 218 214
258 260 336 277 316 286 344 310 280 295 18 310 262 309 171 216 218 190 187 178 175 184 157 152 161 160 153 161 163 155 155 140 129 130 141 144 149 159 187 189 183 210 216 197
265 326 310 318 1 360 246 255 225 83 42 15 342 353 339 345 198 320 194 179 178 162 155 151 151 141 139 141 140 142 142 136 132 129 122 132 143 143 143 158 185 207 208 210
213 221 263 245 209 135 356 356 6 19 1 346 318 330 313 330 293 80 4 338 186 162 155 143 127 121 125 134 133 127 110 117 119 129 156 155 147 144 147 163 211 224 188 218
235 213 273 104 122 30 251 297 195 140 9 304 310 317 324 339 356 27 352 1 72 90 110 122 114 114 112 133 125 128 145 152 148 138 127 150 153 132 143 244 248 225 186 244
328 11 200 227 117 20 288 299 277 8 301 317 301 302 341 17 330 330 19 25 38 83 96 99 90 100 126 122 130 138 125 124 130 129 127 126 98 102 171 88 36 302 302 334
13 323 18 349 57 357 349 360 49 282 303 276 316 315 333 308 66 33 42 63 64 98 98 99 112 115 117 147 150 128 123 120 110 135 112 85 76 49 83 105 1 287 200 237
33 360 357 29 52 52 352 57 294 239 259 321 321 287 192 263 105 166 108 110 118 111 115 114 118 124 121 92 125 134 148 150 126 97 94 79 1 287 230 191 270 297 324 217
1 7 21 140 16 53 47 318 7 323 313 319 334 333 329 356 174 123 138 142 129 124 121 125 131 136 140 131 96 125 135 115 121 115 117 205 205 214 251 200 223 203 250 280
343 335 332 74 24 308 80 37 3 350 358 355 341 330 10 129 189 169 164 148 133 126 111 120 136 145 151 155 150 146 142 140 133 156 212 225 203 225 252 246 206 219 221 193
2 354 5 303 58 310 293 27 5 353 354 351 348 359 10 350 174 143 150 145 136 143 138 132 137 142 151 152 154 166 160 162 164 205 215 199 200 207 246 256 293 293 270 250